Volver al catálogo

FENGYUN 1C DEB

ActivoPO
NORAD 31546·DEBRIS·🇨🇳 China

Lanzado May 10, 1999 desde Taiyuan Satellite Launch Center

Loading…

Próximos Pases (próximas 24 horas)

TLE

ActualizadoSource: Space-Track

Época: Sep 14, 2026, 14:33 UTC

1 31546U 99025BYM 26257.60663389  .00001548  00000-0  74726-3 0  9994
2 31546  98.2249 310.5851 0142642  59.4277 302.0883 14.14674498986871

Sigue FENGYUN 1C DEB en tiempo real con AllMySat

Download on the App Store